Location: Eckley
(40.9930°N, 75.8630°W)
Time: 20:24:06
(UTC-04:00)

Daily predictions for brighter satellites

Satellite Brightness Start Highest point End
(mag) Time Altitude Azimuth Time Altitude Azimuth Time Altitude Azimuth
Meteor 2-14 Rocket 4.4 19:37:24 10° S 19:43:27 79° E 19:49:34 10° N
Cosmos 1937 Rocket 4.1 19:38:55 10° SSE 19:43:34 33° E 19:48:16 10° NE
Cosmos 2298 Rocket 4.4 19:40:54 10° S 19:45:52 44° ESE 19:50:54 10° NNE
SL-27 R/B 4.2 19:45:22 10° NNE 19:47:40 16° ENE 19:49:59 10° ESE
NOAA 12 4.3 19:42:33 10° SSE 19:47:53 81° WSW 19:53:14 10° NNW
Cosmos 1934 Rocket 4.5 19:43:04 10° SSE 19:48:37 37° E 19:54:07 10° NNE
SJ-6B 2.6 19:47:47 10° SSE 19:51:31 78° ENE 19:55:15 10° N
Tiangong 1 1.2 19:48:40 10° WNW 19:51:35 60° N 19:54:26 10° E
Cosmos 1437 Rocket 3.2 19:50:14 10° SSE 19:53:58 42° E 19:57:49 10° NNE
ALOS 2.2 19:54:59 10° SSE 19:59:38 75° ENE 20:04:19 10° N
USA 186 3.1 19:59:44 12° ENE 19:59:57 13° ENE 20:01:03 10° NE
SeaSat 1 2.7 19:56:40 10° SSE 20:01:36 76° WSW 20:06:33 10° NNW
Cosmos 405 2.9 19:59:33 10° S 20:03:04 84° E 20:06:36 10° N
Lacrosse 5 2.7 19:58:54 10° S 20:03:12 29° ESE 20:07:31 10° ENE
Cosmos 1821 Rocket 4.0 20:00:03 10° S 20:06:22 67° E 20:12:41 10° NNE
Cosmos 1535 Rocket 4.5 20:06:52 10° S 20:13:04 74° E 20:19:23 10° N
FengYun 1-2 T 4.3 20:09:39 10° SSE 20:15:12 89° WSW 20:20:51 10° NNW
Cosmos 1844 Rocket 2.7 20:09:55 10° SSW 20:15:34 90° E 20:21:15 10° NNE
Resurs 01 Rocket 1.5 20:13:03 10° SSE 20:17:26 75° ENE 20:21:52 10° N
GP-B 4.4 20:16:20 16° ESE 20:18:10 21° ENE 20:21:31 10° NNE
Cosmos 1953 3.6 20:19:44 19° ESE 20:20:42 21° E 20:23:45 10° NE
Cosmos 2278 Rocket 2.5 20:16:54 10° S 20:22:12 43° ESE 20:27:33 10° NE
BREEZE-M DEB (TANK) 3.0 20:20:11 10° SW 20:22:49 56° SE 20:29:09 10° ENE
Cosmos 1812 Rocket 3.5 20:19:01 10° S 20:23:26 80° E 20:27:51 10° N
Cosmos 1605 Rocket 4.2 20:18:18 10° SSE 20:24:15 50° E 20:30:19 10° NNE
Cosmos 1833 Rocket 4.2 20:20:52 10° N 20:24:45 19° NE 20:26:46 16° ENE
CZ-2C R/B 0.8 20:23:04 10° N 20:24:59 49° E 20:25:16 42° SE
Spot 1 4.4 20:24:55 11° SE 20:29:05 51° ENE 20:33:45 10° N
Meteor 1-24 Rocket 3.6 20:26:39 10° N 20:32:08 86° E 20:37:46 10° S
Cosmos 1378 3.4 20:28:26 10° NNW 20:32:11 69° W 20:35:55 10° S
H-2A R/B 3.1 20:29:58 10° S 20:33:47 68° WSW 20:37:43 10° NNW
Cosmos 2150 Rocket 4.1 20:29:36 10° SSW 20:34:45 77° WNW 20:39:55 10° NNE
Spot 2 Rocket 3.6 20:31:12 10° S 20:36:17 77° WSW 20:41:26 10° NNW
Cosmos 2123 Rocket 3.9 20:30:20 10° N 20:36:41 76° E 20:42:57 10° SSE
FENGYUN 3A 4.5 20:32:00 10° S 20:37:16 53° W 20:42:34 10° NNW
SAR-Lupe-4 3.5 20:35:51 19° SSE 20:38:16 65° ENE 20:41:50 10° N
CZ-3 Stage 3 4.1 19:51:47 10° WSW 20:39:31 54° S 20:45:16 23° ESE
USA 215 3.2 20:35:37 10° NE 20:42:08 66° SE 20:48:36 10° SW
Lacrosse 5 rocket 3.7 20:41:08 10° N 20:42:13 11° NNE 20:43:18 10° NNE
Delta 2 Rocket 4.2 20:38:37 10° WSW 20:42:51 38° S 20:44:17 29° SE
RESURS DK-1 2.3 20:40:40 10° NNW 20:44:48 68° ENE 20:46:35 32° SE
Cosmos 1076 Rocket 3.9 20:42:33 10° N 20:46:33 39° ENE 20:47:15 36° ESE
Cosmos 1766 3.7 20:46:43 10° SSW 20:50:33 63° W 20:54:25 10° N
Cosmos 2082 Rocket 3.0 20:47:00 10° N 20:52:06 32° ENE 20:53:24 29° E
Envisat 3.0 20:51:33 28° SE 20:54:07 57° ENE 20:59:06 10° N
Cosmos 990 Rocket 4.4 20:49:47 10° SSW 20:55:00 67° WNW 21:00:15 10° NNE
SAR-Lupe-1 4.0 20:56:02 32° S 20:57:35 82° WSW 21:01:11 10° NNW
Cosmos 1125 Rocket 3.7 20:54:20 10° S 20:59:13 44° ESE 21:04:10 10° NNE
Cosmos 1048 Rocket 4.4 20:59:21 10° N 21:04:13 41° ENE 21:04:43 40° E
SJ-11-01 4.2 21:03:47 40° SE 21:05:22 68° ENE 21:10:05 10° N
Cosmos 1544 3.0 21:04:09 27° S 21:06:02 85° W 21:09:43 10° N
Meteor 1-4 Rocket 4.0 21:08:19 25° NNE 21:08:19 25° NNE 21:09:55 10° NNE
Helios 1A 3.4 21:04:20 19° S 21:07:10 62° WSW 21:11:19 10° NNW
BREEZE-M DEB (TANK) 4.3 21:05:31 10° NNW 21:06:50 17° N 21:06:50 17° N
Meteor 1-21 Rocket 4.2 21:02:43 10° N 21:08:31 66° E 21:10:58 35° SSE
Helios 1B rocket 2.8 21:05:45 10° N 21:09:51 65° WNW 21:13:56 10° SSW
USA 267 4.0 21:11:56 29° ENE 21:14:30 40° NNE 21:20:30 10° NW
Cosmos 1818 3.7 21:09:46 10° NNW 21:15:08 56° NE 21:15:57 50° E
Cosmos 1447 Rocket 4.3 21:10:38 10° N 21:16:48 87° E 21:20:33 25° S
CZ-3B DEB 3.2 21:06:21 10° WSW 21:16:48 59° NW 21:20:48 16° NE
Lacrosse 4 Rocket 3.9 21:19:19 10° WSW 21:22:25 21° NW 21:25:33 10° N
SL-27 R/B 4.3 21:19:48 10° NW 21:22:58 30° WSW 21:24:08 24° SW
COSMOS 2487 4.4 21:19:50 10° N 21:21:24 23° N 21:21:24 23° N
Meteor 1-29 4.0 21:20:13 10° N 21:23:33 46° WNW 21:25:09 26° SW
ERS-1 Rocket 2.9 21:23:35 60° ENE 21:23:38 60° ENE 21:28:37 10° N
Cosmos 2344 4.1 21:16:05 10° SW 21:23:39 61° NW 21:32:19 10° NNE
ARGOS 4.3 21:25:36 28° NE 21:25:36 28° NE 21:29:12 10° N
Cosmos 1459 Rocket 3.9 21:24:00 46° SE 21:25:36 60° E 21:31:43 10° NNE
Cosmos 2173 Rocket 3.9 21:25:17 51° SE 21:26:24 59° E 21:32:31 10° NNE
Tiangong 1 3.4 21:24:38 10° W 21:25:53 22° W 21:25:53 22° W
Cosmos 1805 4.4 21:25:14 10° SSW 21:28:56 43° WNW 21:32:41 10° N
Cosmos 2098 Rocket 4.4 21:23:26 10° SSW 21:30:20 78° W 21:37:59 10° N
Cosmos 1269 Rocket 3.8 21:28:06 10° NNW 21:33:25 77° ENE 21:33:32 76° E
Cosmos 1340 Rocket 4.5 21:30:27 10° N 21:32:20 25° N 21:32:20 25° N
Cosmos 1674 4.0 21:31:58 10° N 21:34:15 35° NNW 21:34:15 35° NNW
Cosmos 1408 Rocket 3.7 21:32:07 10° N 21:36:11 71° NW 21:36:11 71° NW
Lacrosse 5 2.6 21:41:02 10° WSW 21:45:58 50° NW 21:47:57 32° NNE
SPOT 5 3.8 21:49:18 44° NNE 21:49:18 44° NNE 21:53:13 10° N
Cosmos 1939 Rocket 4.2 21:50:45 38° W 21:50:45 38° W 21:54:31 10° NNW
Cosmos 1953 4.3 21:55:18 21° WSW 21:56:58 28° WNW 22:00:30 10° NNW
Cosmos 2016 Rocket 4.1 21:58:20 62° NNE 21:58:20 62° NNE 22:03:29 10° N
Cosmos 2278 Rocket 4.1 22:01:33 10° WSW 22:06:25 29° NW 22:11:19 10° N
Cosmos 2100 Rocket 4.4 22:04:49 33° SSW 22:07:39 61° W 22:13:57 10° N
Cosmos 1833 Rocket 3.0 22:03:39 10° NNW 22:08:29 62° WNW 22:08:29 62° WNW
H-2A R/B 3.6 22:17:09 28° N 22:17:09 28° N 22:19:45 10° N
Lacrosse 5 rocket 4.1 22:18:50 10° NNW 22:19:28 14° NNW 22:19:28 14° NNW
Cosmos 1802 Rocket 4.4 22:23:38 56° W 22:23:49 56° W 22:29:53 10° N
USA 215 4.2 22:18:50 10° NE 22:24:55 42° NNW 22:30:58 10° W
Terra 4.4 22:29:54 13° N 22:29:54 13° N 22:30:33 10° N
Cosmos 2082 Rocket 3.5 22:31:00 10° NW 22:35:17 35° W 22:35:17 35° W
USA 267 4.0 22:59:17 46° WNW 22:59:17 46° WNW 23:03:46 10° NW
